Total_Precipitation_Accumulation
3.42 3.71 3.54 3.38 3.42 3.40 3.70 4.04 4.13 3.63 3.19 2.93 2.70 2.59 2.53 2.48 2.60 2.40 2.41 2.42 2.16 1.99 1.87 1.77 1.77 1.75 1.85 2.02 2.25 2.53 2.82 3.07 3.29 3.45 3.64 3.92 4.28 4.65
3.29 3.44 3.42 3.32 3.56 3.56 3.69 4.00 4.27 4.18 3.44 3.11 2.97 2.61 2.65 2.25 2.45 2.29 2.27 2.25 2.00 1.84 1.75 1.73 1.73 1.73 1.72 1.73 1.82 1.98 2.20 2.42 2.62 2.79 2.84 2.86 3.02 3.33
2.83 2.91 2.87 3.16 3.37 3.36 3.59 3.78 4.05 4.31 3.78 3.39 3.40 3.11 3.08 2.82 2.59 2.37 2.15 2.06 1.85 1.80 1.67 1.61 1.57 1.59 1.63 1.57 1.55 1.64 1.80 1.95 2.09 2.29 2.53 2.64 2.63 2.72
2.67 2.78 2.61 2.87 3.04 3.13 3.38 3.54 3.80 4.26 4.04 3.66 3.54 3.40 3.30 3.12 2.92 2.69 2.19 1.89 1.86 1.95 1.75 1.60 1.54 1.52 1.54 1.49 1.43 1.41 1.45 1.50 1.59 1.74 1.98 2.22 2.34 2.49
2.49 2.42 2.35 2.58 2.65 2.89 3.11 3.11 3.31 3.74 3.85 3.47 3.26 3.49 3.32 3.13 3.22 2.84 2.53 2.45 1.90 1.87 1.79 1.60 1.54 1.46 1.44 1.44 1.42 1.34 1.31 1.31 1.35 1.48 1.72 1.94 2.08 2.17
2.23 2.14 2.18 2.37 2.38 2.58 2.65 2.87 3.11 3.24 3.45 3.36 3.17 3.26 3.26 3.19 3.40 3.17 2.97 2.79 2.40 1.96 1.98 1.76 1.66 1.59 1.48 1.40 1.38 1.38 1.40 1.39 1.39 1.46 1.55 1.67 1.86 1.99
1.98 1.87 1.81 1.85 1.92 2.11 2.06 2.38 2.73 2.82 2.89 3.03 3.02 3.10 3.30 3.46 3.30 3.30 3.17 3.00 2.78 2.50 2.48 2.08 1.79 1.61 1.56 1.51 1.47 1.48 1.51 1.54 1.56 1.63 1.73 1.79 1.86 1.95
1.97 1.93 1.73 1.64 1.65 1.74 1.78 1.88 2.13 2.27 2.46 2.74 2.82 2.89 3.12 3.43 3.53 3.52 3.40 3.20 2.93 2.69 2.82 2.78 2.39 2.08 1.86 1.58 1.58 1.60 1.64 1.72 1.76 1.84 1.94 2.03 2.17 2.17
1.95 1.92 1.64 1.49 1.59 1.55 1.70 1.72 1.79 1.88 2.02 2.31 2.43 2.46 2.75 3.10 3.48 3.47 3.51 3.29 3.04 2.98 3.10 3.09 3.16 2.89 2.29 1.92 1.86 1.65 1.71 1.82 1.87 1.92 1.99 2.03 2.18 2.32
1.84 1.91 1.92 1.86 1.75 1.77 1.78 1.69 1.57 1.61 1.67 1.63 1.72 1.98 2.21 2.54 2.97 3.11 3.38 3.53 3.34 3.24 3.31 3.35 3.38 3.59 3.07 2.49 2.33 2.01 1.92 1.97 2.02 2.02 2.04 2.12 2.19 2.25
1.87 1.90 1.90 1.84 1.81 1.74 1.70 1.68 1.54 1.47 1.46 1.48 1.50 1.67 1.91 2.08 2.44 2.79 3.07 3.30 3.36 3.45 3.55 3.60 3.50 3.66 3.90 3.42 2.74 2.39 2.10 1.99 2.03 2.11 2.16 2.25 2.31 2.32
1.96 1.92 1.82 1.71 1.77 1.64 1.49 1.55 1.53 1.56 1.62 1.57 1.59 1.65 1.70 1.88 2.22 2.50 2.78 3.10 3.14 3.22 3.05 3.08 3.12 3.32 3.76 3.91 3.46 2.77 2.29 2.12 2.03 2.00 2.04 2.15 2.30 2.12
1.94 1.96 1.90 1.78 1.51 1.43 1.39 1.40 1.50 1.60 1.69 1.73 1.72 1.77 1.89 1.95 2.02 2.21 2.51 2.80 2.89 2.68 2.49 2.71 2.92 3.08 3.19 3.34 3.45 3.29 2.80 2.47 2.27 2.09 2.03 2.03 2.07 1.98
2.18 2.17 2.11 1.91 1.60 1.47 1.38 1.44 1.56 1.51 1.51 1.64 1.64 1.64 1.74 1.86 1.98 2.17 2.37 2.51 2.59 2.59 2.62 2.81 2.94 2.98 3.10 3.11 3.13 3.16 3.10 2.91 2.70 2.54 2.46 2.44 2.21 2.11
2.37 2.40 2.30 2.05 1.77 1.54 1.47 1.48 1.47 1.39 1.40 1.49 1.48 1.48 1.57 1.70 1.82 2.03 2.26 2.47 2.53 2.43 2.47 2.65 2.80 2.84 3.00 3.01 2.88 2.78 2.89 2.98 2.93 2.85 2.87 2.82 2.61 2.41
2.50 2.43 2.34 2.13 1.85 1.68 1.61 1.50 1.41 1.46 1.48 1.47 1.51 1.56 1.68 1.81 1.92 2.01 2.23 2.43 2.59 2.50 2.43 2.46 2.58 2.79 2.78 2.63 2.53 2.33 2.34 2.46 2.61 2.76 2.94 3.11 3.08 2.95
2.64 2.45 2.35 2.15 1.95 1.83 1.75 1.67 1.64 1.65 1.59 1.53 1.59 1.63 1.68 1.77 1.86 1.91 2.08 2.19 2.23 2.25 2.36 2.47 2.64 2.78 2.78 2.69 2.52 2.24 2.17 2.11 2.17 2.50 2.84 3.03 2.98 2.80
2.17 2.09 2.12 2.04 1.94 1.85 1.79 1.72 1.71 1.65 1.61 1.62 1.66 1.65 1.66 1.67 1.76 1.87 2.00 2.07 2.05 2.05 2.15 2.26 2.57 2.82 2.85 2.63 2.22 2.07 2.05 2.01 2.06 2.32 2.52 2.57 2.49 2.34
1.82 1.84 1.82 1.78 1.75 1.74 1.73 1.68 1.66 1.65 1.71 1.76 1.75 1.82 1.86 1.84 1.80 1.91 2.07 2.15 2.11 2.12 2.23 2.36 2.53 2.68 2.63 2.35 2.09 1.84 1.89 1.95 2.13 2.30 2.36 2.28 2.11 1.93
1.66 1.72 1.73 1.73 1.73 1.74 1.77 1.73 1.76 1.78 1.82 1.88 1.91 1.94 2.02 2.01 2.00 2.00 2.09 2.18 2.15 2.17 2.25 2.35 2.39 2.42 2.40 2.30 2.18 1.97 1.76 1.84 1.94 2.03 2.13 2.15 1.99 1.80
1.78 1.85 1.87 1.87 1.89 1.93 1.90 1.87 1.90 1.89 1.84 1.89 1.91 1.93 1.93 1.97 2.06 2.09 2.16 2.27 2.23 2.16 2.12 2.13 2.22 2.37 2.51 2.74 2.58 2.20 1.98 1.88 1.92 1.97 2.08 2.19 2.14 2.04
1.82 1.87 1.91 1.94 1.98 1.99 1.95 1.91 1.92 1.89 1.87 1.89 1.86 1.85 1.86 1.86 1.88 1.96 2.01 2.07 2.10 2.09 2.04 2.10 2.35 2.55 2.64 2.73 2.56 2.35 2.27 2.19 2.14 2.10 2.03 1.95 1.93 1.88
1.81 1.86 1.86 1.84 1.83 1.81 1.76 1.78 1.88 1.91 1.93 1.92 1.88 1.85 1.85 1.86 1.85 1.93 2.00 2.05 2.09 2.16 2.19 2.23 2.31 2.44 2.54 2.59 2.63 2.55 2.39 2.31 2.32 2.28 2.13 1.89 1.55 1.37